Location: ?????????
(41.1143°N, 22.7905°E)
Time: 15:28:30
(UTC+00:00)

Aureole 1 Rocket - Pass Details

Date: 13 December 2025
Orbit: 372 x 1167 km, 73.9° (Epoch: 19 January)

Event Time Altitude Azimuth Distance (km) Brightness Sun altitude
Rises 16:02:11 0° 190° (S) 2,702 6.8 -11.3°
Reaches altitude 10° 16:04:09 10° 188° (S) 1,915 6.0 -11.6°
Maximum altitude 16:08:24 68° 105° (ESE) 750 3.3 -12.4°
Drops below altitude 10° 16:13:52 10° 24° (NNE) 2,444 5.7 -13.3°
Enters shadow 16:14:52 - 23° (NNE) 2,835 6.0 -13.5°
